Year,Month,Day,Hour,Minute,Value (Times are PST for temperature in C)
2016,07,14,00,00,14.30
2016,07,14,00,01,14.30
2016,07,14,00,02,14.20
2016,07,14,00,03,14.20
2016,07,14,00,04,14.20
2016,07,14,00,05,14.10
2016,07,14,00,06,14.10
2016,07,14,00,07,14.00
2016,07,14,00,08,14.00
2016,07,14,00,09,13.90
2016,07,14,00,10,13.90
2016,07,14,00,11,13.90
2016,07,14,00,12,13.90
2016,07,14,00,13,13.90
2016,07,14,00,14,13.90
2016,07,14,00,15,13.90
2016,07,14,00,16,13.90
2016,07,14,00,17,13.90
2016,07,14,00,18,13.90
2016,07,14,00,19,13.90
2016,07,14,00,20,13.90
2016,07,14,00,21,13.90
2016,07,14,00,22,14.00
2016,07,14,00,23,14.00
2016,07,14,00,24,14.00
2016,07,14,00,25,14.10
2016,07,14,00,26,14.10
2016,07,14,00,27,14.10
2016,07,14,00,28,14.10
2016,07,14,00,29,14.10
2016,07,14,00,30,14.10
2016,07,14,00,31,14.10
2016,07,14,00,32,14.10
2016,07,14,00,33,14.10
2016,07,14,00,34,14.10
2016,07,14,00,35,14.10
2016,07,14,00,36,14.10
2016,07,14,00,37,14.10
2016,07,14,00,38,14.10
2016,07,14,00,39,14.10
2016,07,14,00,40,14.10
2016,07,14,00,41,14.10
2016,07,14,00,42,14.10
2016,07,14,00,43,14.10
2016,07,14,00,44,14.00
2016,07,14,00,45,14.10
2016,07,14,00,46,14.00
2016,07,14,00,47,14.00
2016,07,14,00,48,14.00
2016,07,14,00,49,13.90
2016,07,14,00,50,13.90
2016,07,14,00,51,13.90
2016,07,14,00,52,13.90
2016,07,14,00,53,13.90
2016,07,14,00,54,13.90
2016,07,14,00,55,13.80
2016,07,14,00,56,13.80
2016,07,14,00,57,13.80
2016,07,14,00,58,13.70
2016,07,14,00,59,13.70
2016,07,14,01,00,13.70
2016,07,14,01,01,13.70
2016,07,14,01,02,13.70
2016,07,14,01,03,13.60
2016,07,14,01,04,13.60
2016,07,14,01,05,13.60
2016,07,14,01,06,13.60
2016,07,14,01,07,13.60
2016,07,14,01,08,13.60
2016,07,14,01,09,13.60
2016,07,14,01,10,13.60
2016,07,14,01,11,13.50
2016,07,14,01,12,13.50
2016,07,14,01,13,13.50
2016,07,14,01,14,13.60
2016,07,14,01,15,13.60
2016,07,14,01,16,13.60
2016,07,14,01,17,13.60
2016,07,14,01,18,13.60
2016,07,14,01,19,13.60
2016,07,14,01,20,13.60
2016,07,14,01,21,13.50
2016,07,14,01,22,13.50
2016,07,14,01,23,13.50
2016,07,14,01,24,13.50
2016,07,14,01,25,13.60
2016,07,14,01,26,13.60
2016,07,14,01,27,13.60
2016,07,14,01,28,13.60
2016,07,14,01,29,13.70
2016,07,14,01,30,13.70
2016,07,14,01,31,13.70
2016,07,14,01,32,13.70
2016,07,14,01,33,13.70
2016,07,14,01,34,13.80
2016,07,14,01,35,13.80
2016,07,14,01,36,13.80
2016,07,14,01,37,13.80
2016,07,14,01,38,13.90
2016,07,14,01,39,13.90
2016,07,14,01,40,13.90
2016,07,14,01,41,13.90
2016,07,14,01,42,13.90
2016,07,14,01,43,13.90
2016,07,14,01,44,13.90
2016,07,14,01,45,13.90
2016,07,14,01,46,13.90
2016,07,14,01,47,13.90
2016,07,14,01,48,13.90
2016,07,14,01,49,13.90
2016,07,14,01,50,13.80
2016,07,14,01,51,13.80
2016,07,14,01,52,13.80
2016,07,14,01,53,13.80
2016,07,14,01,54,13.80
2016,07,14,01,55,13.80
2016,07,14,01,56,13.80
2016,07,14,01,57,13.90
2016,07,14,01,58,13.90
2016,07,14,01,59,13.90
2016,07,14,02,00,13.90
2016,07,14,02,01,13.90
2016,07,14,02,02,13.90
2016,07,14,02,03,13.90
2016,07,14,02,04,13.90
2016,07,14,02,05,13.90
2016,07,14,02,06,13.90
2016,07,14,02,07,13.90
2016,07,14,02,08,13.90
2016,07,14,02,09,13.90
2016,07,14,02,10,13.90
2016,07,14,02,11,13.90
2016,07,14,02,12,14.00
2016,07,14,02,13,14.00
2016,07,14,02,14,14.00
2016,07,14,02,15,14.00
2016,07,14,02,16,14.00
2016,07,14,02,17,14.00
2016,07,14,02,18,14.00
2016,07,14,02,19,14.00
2016,07,14,02,20,14.00
2016,07,14,02,21,14.00
2016,07,14,02,22,14.00
2016,07,14,02,23,14.10
2016,07,14,02,24,14.10
2016,07,14,02,25,14.10
2016,07,14,02,26,14.10
2016,07,14,02,27,14.10
2016,07,14,02,28,14.10
2016,07,14,02,29,14.10
2016,07,14,02,30,14.10
2016,07,14,02,31,14.20
2016,07,14,02,32,14.10
2016,07,14,02,33,14.10
2016,07,14,02,34,14.10
2016,07,14,02,35,14.10
2016,07,14,02,36,14.10
2016,07,14,02,37,14.10
2016,07,14,02,38,14.10
2016,07,14,02,39,14.10
2016,07,14,02,40,14.10
2016,07,14,02,41,14.00
2016,07,14,02,42,14.00
2016,07,14,02,43,14.00
2016,07,14,02,44,14.00
2016,07,14,02,45,14.00
2016,07,14,02,46,14.00
2016,07,14,02,47,13.90
2016,07,14,02,48,13.90
2016,07,14,02,49,13.90
2016,07,14,02,50,13.90
2016,07,14,02,51,13.90
2016,07,14,02,52,13.90
2016,07,14,02,53,13.90
2016,07,14,02,54,13.90
2016,07,14,02,55,13.90
2016,07,14,02,56,13.90
2016,07,14,02,57,13.90
2016,07,14,02,58,13.80
2016,07,14,02,59,13.80
2016,07,14,03,00,13.80
2016,07,14,03,01,13.70
2016,07,14,03,02,13.70
2016,07,14,03,03,13.70
2016,07,14,03,04,13.60
2016,07,14,03,05,13.60
2016,07,14,03,06,13.50
2016,07,14,03,07,13.50
2016,07,14,03,08,13.50
2016,07,14,03,09,13.40
2016,07,14,03,10,13.40
2016,07,14,03,11,13.40
2016,07,14,03,12,13.40
2016,07,14,03,13,13.30
2016,07,14,03,14,13.30
2016,07,14,03,15,13.30
2016,07,14,03,16,13.30
2016,07,14,03,17,13.30
2016,07,14,03,18,13.30
2016,07,14,03,19,13.40
2016,07,14,03,20,13.40
2016,07,14,03,21,13.40
2016,07,14,03,22,13.40
2016,07,14,03,23,13.50
2016,07,14,03,24,13.50
2016,07,14,03,25,13.50
2016,07,14,03,26,13.50
2016,07,14,03,27,13.50
2016,07,14,03,28,13.50
2016,07,14,03,29,13.50
2016,07,14,03,30,13.50
2016,07,14,03,31,13.50
2016,07,14,03,32,13.50
2016,07,14,03,33,13.50
2016,07,14,03,34,13.50
2016,07,14,03,35,13.50
2016,07,14,03,36,13.50
2016,07,14,03,37,13.50
2016,07,14,03,38,13.40
2016,07,14,03,39,13.40
2016,07,14,03,40,13.40
2016,07,14,03,41,13.40
2016,07,14,03,42,13.50
2016,07,14,03,43,13.60
2016,07,14,03,44,13.60
2016,07,14,03,45,13.60
2016,07,14,03,46,13.60
2016,07,14,03,47,13.60
2016,07,14,03,48,13.60
2016,07,14,03,49,13.60
2016,07,14,03,50,13.60
2016,07,14,03,51,13.60
2016,07,14,03,52,13.60
2016,07,14,03,53,13.50
2016,07,14,03,54,13.50
2016,07,14,03,55,13.50
2016,07,14,03,56,13.40
2016,07,14,03,57,13.40
2016,07,14,03,58,13.40
2016,07,14,03,59,13.40
2016,07,14,04,00,13.30
2016,07,14,04,01,13.30
2016,07,14,04,02,13.20
2016,07,14,04,03,13.20
2016,07,14,04,04,13.30
2016,07,14,04,05,13.30
2016,07,14,04,06,13.30
2016,07,14,04,07,13.30
2016,07,14,04,08,13.30
2016,07,14,04,09,13.30
2016,07,14,04,10,13.30
2016,07,14,04,11,13.30
2016,07,14,04,12,13.30
2016,07,14,04,13,13.30
2016,07,14,04,14,13.30
2016,07,14,04,15,13.20
2016,07,14,04,16,13.20
2016,07,14,04,17,13.20
2016,07,14,04,18,13.20
2016,07,14,04,19,13.20
2016,07,14,04,20,13.20
2016,07,14,04,21,13.30
2016,07,14,04,22,13.30
2016,07,14,04,23,13.30
2016,07,14,04,24,13.30
2016,07,14,04,25,13.30
2016,07,14,04,26,13.20
2016,07,14,04,27,13.20
2016,07,14,04,28,13.20
2016,07,14,04,29,13.30
2016,07,14,04,30,13.20
2016,07,14,04,31,13.30
2016,07,14,04,32,13.30
2016,07,14,04,33,13.30
2016,07,14,04,34,13.30
2016,07,14,04,35,13.30
2016,07,14,04,36,13.30
2016,07,14,04,37,13.30
2016,07,14,04,38,13.30
2016,07,14,04,39,13.30
2016,07,14,04,40,13.30
2016,07,14,04,41,13.30
2016,07,14,04,42,13.30
2016,07,14,04,43,13.30
2016,07,14,04,44,13.30
2016,07,14,04,45,13.30
2016,07,14,04,46,13.30
2016,07,14,04,47,13.30
2016,07,14,04,48,13.30
2016,07,14,04,49,13.30
2016,07,14,04,50,13.30
2016,07,14,04,51,13.20
2016,07,14,04,52,13.20
2016,07,14,04,53,13.20
2016,07,14,04,54,13.20
2016,07,14,04,55,13.20
2016,07,14,04,56,13.10
2016,07,14,04,57,13.10
2016,07,14,04,58,13.10
2016,07,14,04,59,13.10
2016,07,14,05,00,13.10
2016,07,14,05,01,13.10
2016,07,14,05,02,13.20
2016,07,14,05,03,13.20
2016,07,14,05,04,13.20
2016,07,14,05,05,13.20
2016,07,14,05,06,13.20
2016,07,14,05,07,13.20
2016,07,14,05,08,13.20
2016,07,14,05,09,13.30
2016,07,14,05,10,13.30
2016,07,14,05,11,13.30
2016,07,14,05,12,13.30
2016,07,14,05,13,13.30
2016,07,14,05,14,13.30
2016,07,14,05,15,13.30
2016,07,14,05,16,13.30
2016,07,14,05,17,13.30
2016,07,14,05,18,13.30
2016,07,14,05,19,13.40
2016,07,14,05,20,13.30
2016,07,14,05,21,13.30
2016,07,14,05,22,13.30
2016,07,14,05,23,13.30
2016,07,14,05,24,13.30
2016,07,14,05,25,13.30
2016,07,14,05,26,13.30
2016,07,14,05,27,13.30
2016,07,14,05,28,13.40
2016,07,14,05,29,13.40
2016,07,14,05,30,13.50
2016,07,14,05,31,13.50
2016,07,14,05,32,13.60
2016,07,14,05,33,13.60
2016,07,14,05,34,13.70
2016,07,14,05,35,13.70
2016,07,14,05,36,13.80
2016,07,14,05,37,13.80
2016,07,14,05,38,13.80
2016,07,14,05,39,13.90
2016,07,14,05,40,13.90
2016,07,14,05,41,13.90
2016,07,14,05,42,13.90
2016,07,14,05,43,13.90
2016,07,14,05,44,14.00
2016,07,14,05,45,14.00
2016,07,14,05,46,14.00
2016,07,14,05,47,14.00
2016,07,14,05,48,14.00
2016,07,14,05,49,14.00
2016,07,14,05,50,14.00
2016,07,14,05,51,13.90
2016,07,14,05,52,13.90
2016,07,14,05,53,13.90
2016,07,14,05,54,13.90
2016,07,14,05,55,13.80
2016,07,14,05,56,13.80
2016,07,14,05,57,13.80
2016,07,14,05,58,13.70
2016,07,14,05,59,13.70
2016,07,14,06,00,13.70
2016,07,14,06,01,13.60
2016,07,14,06,02,13.60
2016,07,14,06,03,13.60
2016,07,14,06,04,13.60
2016,07,14,06,05,13.50
2016,07,14,06,06,13.50
2016,07,14,06,07,13.60
2016,07,14,06,08,13.60
2016,07,14,06,09,13.60
2016,07,14,06,10,13.60
2016,07,14,06,11,13.60
2016,07,14,06,12,13.60
2016,07,14,06,13,13.60
2016,07,14,06,14,13.60
2016,07,14,06,15,13.60
2016,07,14,06,16,13.60
2016,07,14,06,17,13.70
2016,07,14,06,18,13.80
2016,07,14,06,19,13.90
2016,07,14,06,20,14.00
2016,07,14,06,21,14.10
2016,07,14,06,22,14.20
2016,07,14,06,23,14.30
2016,07,14,06,24,14.30
2016,07,14,06,25,14.40
2016,07,14,06,26,14.40
2016,07,14,06,27,14.40
2016,07,14,06,28,14.50
2016,07,14,06,29,14.50
2016,07,14,06,30,14.50
2016,07,14,06,31,14.60
2016,07,14,06,32,14.60
2016,07,14,06,33,14.60
2016,07,14,06,34,14.60
2016,07,14,06,35,14.70
2016,07,14,06,36,14.70
2016,07,14,06,37,14.70
2016,07,14,06,38,14.70
2016,07,14,06,39,14.80
2016,07,14,06,40,14.80
2016,07,14,06,41,14.80
2016,07,14,06,42,14.80
2016,07,14,06,43,14.80
2016,07,14,06,44,14.80
2016,07,14,06,45,14.80
2016,07,14,06,46,14.80
2016,07,14,06,47,14.80
2016,07,14,06,48,14.70
2016,07,14,06,49,14.70
2016,07,14,06,50,14.70
2016,07,14,06,51,14.70
2016,07,14,06,52,14.80
2016,07,14,06,53,14.80
2016,07,14,06,54,14.80
2016,07,14,06,55,14.80
2016,07,14,06,56,14.80
2016,07,14,06,57,14.80
2016,07,14,06,58,14.90
2016,07,14,06,59,14.90
2016,07,14,07,00,15.00
2016,07,14,07,01,15.00
2016,07,14,07,02,15.00
2016,07,14,07,03,15.00
2016,07,14,07,04,15.00
2016,07,14,07,05,15.00
2016,07,14,07,06,15.00
2016,07,14,07,07,15.00
2016,07,14,07,08,15.00
2016,07,14,07,09,15.00
2016,07,14,07,10,15.10
2016,07,14,07,11,15.20
2016,07,14,07,12,15.20
2016,07,14,07,13,15.30
2016,07,14,07,14,15.30
2016,07,14,07,15,15.40
2016,07,14,07,16,15.40
2016,07,14,07,17,15.40
2016,07,14,07,18,15.40
2016,07,14,07,19,15.50
2016,07,14,07,20,15.50
2016,07,14,07,21,15.60
2016,07,14,07,22,15.60
2016,07,14,07,23,15.60
2016,07,14,07,24,15.70
2016,07,14,07,25,15.70
2016,07,14,07,26,15.70
2016,07,14,07,27,15.70
2016,07,14,07,28,15.70
2016,07,14,07,29,15.80
2016,07,14,07,30,15.80
2016,07,14,07,31,15.80
2016,07,14,07,32,15.80
2016,07,14,07,33,15.90
2016,07,14,07,34,15.90
2016,07,14,07,35,15.90
2016,07,14,07,36,15.90
2016,07,14,07,37,15.90
2016,07,14,07,38,15.90
2016,07,14,07,39,16.00
2016,07,14,07,40,16.00
2016,07,14,07,41,16.00
2016,07,14,07,42,16.10
2016,07,14,07,43,16.10
2016,07,14,07,44,16.10
2016,07,14,07,45,16.10
2016,07,14,07,46,16.10
2016,07,14,07,47,16.10
2016,07,14,07,48,16.20
2016,07,14,07,49,16.20
2016,07,14,07,50,16.20
2016,07,14,07,51,16.20
2016,07,14,07,52,16.20
2016,07,14,07,53,16.20
2016,07,14,07,54,16.30
2016,07,14,07,55,16.30
2016,07,14,07,56,16.30
2016,07,14,07,57,16.30
2016,07,14,07,58,16.30
2016,07,14,07,59,16.30
2016,07,14,08,00,16.30
2016,07,14,08,01,16.40
2016,07,14,08,02,16.40
2016,07,14,08,03,16.40
2016,07,14,08,04,16.40
2016,07,14,08,05,16.50
2016,07,14,08,06,16.50
2016,07,14,08,07,16.50
2016,07,14,08,08,16.50
2016,07,14,08,09,16.50
2016,07,14,08,10,16.50
2016,07,14,08,11,16.60
2016,07,14,08,12,16.60
2016,07,14,08,13,16.60
2016,07,14,08,14,16.60
2016,07,14,08,15,16.60
2016,07,14,08,16,16.60
2016,07,14,08,17,16.60
2016,07,14,08,18,16.60
2016,07,14,08,19,16.70
2016,07,14,08,20,16.70
2016,07,14,08,21,16.70
2016,07,14,08,22,16.70
2016,07,14,08,23,16.80
2016,07,14,08,24,16.80
2016,07,14,08,25,16.80
2016,07,14,08,26,16.90
2016,07,14,08,27,16.90
2016,07,14,08,28,16.90
2016,07,14,08,29,16.90
2016,07,14,08,30,16.80
2016,07,14,08,31,16.80
2016,07,14,08,32,16.90
2016,07,14,08,33,16.90
2016,07,14,08,34,17.00
2016,07,14,08,35,17.10
2016,07,14,08,36,17.10
2016,07,14,08,37,17.10
2016,07,14,08,38,17.20
2016,07,14,08,39,17.30
2016,07,14,08,40,17.30
2016,07,14,08,41,17.40
2016,07,14,08,42,17.30
2016,07,14,08,43,17.30
2016,07,14,08,44,17.30
2016,07,14,08,45,17.30
2016,07,14,08,46,17.20
2016,07,14,08,47,17.30
2016,07,14,08,48,17.30
2016,07,14,08,49,17.20
2016,07,14,08,50,17.20
2016,07,14,08,51,17.20
2016,07,14,08,52,17.10
2016,07,14,08,53,17.10
2016,07,14,08,54,17.10
2016,07,14,08,55,17.10
2016,07,14,08,56,17.00
2016,07,14,08,57,17.00
2016,07,14,08,58,17.00
2016,07,14,08,59,17.00
2016,07,14,09,00,17.00
2016,07,14,09,01,17.00
2016,07,14,09,02,17.00
2016,07,14,09,03,17.00
2016,07,14,09,04,16.90
2016,07,14,09,05,16.90
2016,07,14,09,06,16.90
2016,07,14,09,07,16.90
2016,07,14,09,08,16.90
2016,07,14,09,09,16.90
2016,07,14,09,10,16.90
2016,07,14,09,11,16.90
2016,07,14,09,12,16.90
2016,07,14,09,13,16.90
2016,07,14,09,14,16.90
2016,07,14,09,15,16.90
2016,07,14,09,16,17.00
2016,07,14,09,17,17.00
2016,07,14,09,18,17.10
2016,07,14,09,19,17.10
2016,07,14,09,20,17.20
2016,07,14,09,21,17.20
2016,07,14,09,22,17.30
2016,07,14,09,23,17.30
2016,07,14,09,24,17.40
2016,07,14,09,25,17.50
2016,07,14,09,26,17.40
2016,07,14,09,27,17.40
2016,07,14,09,28,17.40
2016,07,14,09,29,17.30
2016,07,14,09,30,17.30
2016,07,14,09,31,17.30
2016,07,14,09,32,17.20
2016,07,14,09,33,17.20
2016,07,14,09,34,17.20
2016,07,14,09,35,17.10
2016,07,14,09,36,17.10
2016,07,14,09,37,17.00
2016,07,14,09,38,17.00
2016,07,14,09,39,17.00
2016,07,14,09,40,17.00
2016,07,14,09,41,16.90
2016,07,14,09,42,16.90
2016,07,14,09,43,16.90
2016,07,14,09,44,16.90
2016,07,14,09,45,16.90
2016,07,14,09,46,16.90
2016,07,14,09,47,16.90
2016,07,14,09,48,16.90
2016,07,14,09,49,16.90
2016,07,14,09,50,16.90
2016,07,14,09,51,16.90
2016,07,14,09,52,16.90
2016,07,14,09,53,16.90
2016,07,14,09,54,16.80
2016,07,14,09,55,16.80
2016,07,14,09,56,16.80
2016,07,14,09,57,16.80
2016,07,14,09,58,16.80
2016,07,14,09,59,16.90
2016,07,14,10,00,16.90
2016,07,14,10,01,17.00
2016,07,14,10,02,17.00
2016,07,14,10,03,17.10
2016,07,14,10,04,17.10
2016,07,14,10,05,17.20
2016,07,14,10,06,17.30
2016,07,14,10,07,17.30
2016,07,14,10,08,17.40
2016,07,14,10,09,17.40
2016,07,14,10,10,17.50
2016,07,14,10,11,17.50
2016,07,14,10,12,17.50
2016,07,14,10,13,17.50
2016,07,14,10,14,17.50
2016,07,14,10,15,17.50
2016,07,14,10,16,17.50
2016,07,14,10,17,17.50
2016,07,14,10,18,17.50
2016,07,14,10,19,17.40
2016,07,14,10,20,17.30
2016,07,14,10,21,17.30
2016,07,14,10,22,17.30
2016,07,14,10,23,17.30
2016,07,14,10,24,17.30
2016,07,14,10,25,17.30
2016,07,14,10,26,17.30
2016,07,14,10,27,17.30
2016,07,14,10,28,17.30
2016,07,14,10,29,17.30
2016,07,14,10,30,17.30
2016,07,14,10,31,17.30
2016,07,14,10,32,17.30
2016,07,14,10,33,17.20
2016,07,14,10,34,17.10
2016,07,14,10,35,17.10
2016,07,14,10,36,17.10
2016,07,14,10,37,17.10
2016,07,14,10,38,17.10
2016,07,14,10,39,17.10
2016,07,14,10,40,17.10
2016,07,14,10,41,17.10
2016,07,14,10,42,17.00
2016,07,14,10,43,17.00
2016,07,14,10,44,17.00
2016,07,14,10,45,17.00
2016,07,14,10,46,17.10
2016,07,14,10,47,17.10
2016,07,14,10,48,17.10
2016,07,14,10,49,17.10
2016,07,14,10,50,17.10
2016,07,14,10,51,17.10
2016,07,14,10,52,17.10
2016,07,14,10,53,17.20
2016,07,14,10,54,17.20
2016,07,14,10,55,17.30
2016,07,14,10,56,17.30
2016,07,14,10,57,17.30
2016,07,14,10,58,17.30
2016,07,14,10,59,17.20
2016,07,14,11,00,17.20
2016,07,14,11,01,17.30
2016,07,14,11,02,17.30
2016,07,14,11,03,17.30
2016,07,14,11,04,17.30
2016,07,14,11,05,17.30
2016,07,14,11,06,17.40
2016,07,14,11,07,17.40
2016,07,14,11,08,17.40
2016,07,14,11,09,17.40
2016,07,14,11,10,17.40
2016,07,14,11,11,17.40
2016,07,14,11,12,17.40
2016,07,14,11,13,17.40
2016,07,14,11,14,17.40
2016,07,14,11,15,17.50
2016,07,14,11,16,17.60
2016,07,14,11,17,17.60
2016,07,14,11,18,17.70
2016,07,14,11,19,17.80
2016,07,14,11,20,17.80
2016,07,14,11,21,17.90
2016,07,14,11,22,17.90
2016,07,14,11,23,18.00
2016,07,14,11,24,18.20
2016,07,14,11,25,18.20
2016,07,14,11,26,18.30
2016,07,14,11,27,18.30
2016,07,14,11,28,18.20
2016,07,14,11,29,18.10
2016,07,14,11,30,18.00
2016,07,14,11,31,17.90
2016,07,14,11,32,17.90
2016,07,14,11,33,17.80
2016,07,14,11,34,17.80
2016,07,14,11,35,17.90
2016,07,14,11,36,17.90
2016,07,14,11,37,18.00
2016,07,14,11,38,18.10
2016,07,14,11,39,18.20
2016,07,14,11,40,18.10
2016,07,14,11,41,18.20
2016,07,14,11,42,18.10
2016,07,14,11,43,18.20
2016,07,14,11,44,18.30
2016,07,14,11,45,18.40
2016,07,14,11,46,18.50
2016,07,14,11,47,18.60
2016,07,14,11,48,18.70
2016,07,14,11,49,18.90
2016,07,14,11,50,19.00
2016,07,14,11,51,18.90
2016,07,14,11,52,18.90
2016,07,14,11,53,18.70
2016,07,14,11,54,18.70
2016,07,14,11,55,18.70
2016,07,14,11,56,18.70
2016,07,14,11,57,18.80
2016,07,14,11,58,18.80
2016,07,14,11,59,18.80
2016,07,14,12,00,18.90
2016,07,14,12,01,18.90
2016,07,14,12,02,18.90
2016,07,14,12,03,19.00
2016,07,14,12,04,19.00
2016,07,14,12,05,19.00
2016,07,14,12,06,19.00
2016,07,14,12,07,19.10
2016,07,14,12,08,19.20
2016,07,14,12,09,19.10
2016,07,14,12,10,19.00
2016,07,14,12,11,18.90
2016,07,14,12,12,19.00
2016,07,14,12,13,19.10
2016,07,14,12,14,19.20
2016,07,14,12,15,19.30
2016,07,14,12,16,19.20
2016,07,14,12,17,19.20
2016,07,14,12,18,19.10
2016,07,14,12,19,19.10
2016,07,14,12,20,19.20
2016,07,14,12,21,19.30
2016,07,14,12,22,19.30
2016,07,14,12,23,19.20
2016,07,14,12,24,19.20
2016,07,14,12,25,19.10
2016,07,14,12,26,19.10
2016,07,14,12,27,19.10
2016,07,14,12,28,19.00
2016,07,14,12,29,19.00
2016,07,14,12,30,18.90
2016,07,14,12,31,18.90
2016,07,14,12,32,18.80
2016,07,14,12,33,18.80
2016,07,14,12,34,18.80
2016,07,14,12,35,18.90
2016,07,14,12,36,19.00
2016,07,14,12,37,19.10
2016,07,14,12,38,19.30
2016,07,14,12,39,19.30
2016,07,14,12,40,19.30
2016,07,14,12,41,19.20
2016,07,14,12,42,19.20
2016,07,14,12,43,19.30
2016,07,14,12,44,19.40
2016,07,14,12,45,19.60
2016,07,14,12,46,19.60
2016,07,14,12,47,19.60
2016,07,14,12,48,19.50
2016,07,14,12,49,19.40
2016,07,14,12,50,19.40
2016,07,14,12,51,19.50
2016,07,14,12,52,19.50
2016,07,14,12,53,19.40
2016,07,14,12,54,19.40
2016,07,14,12,55,19.40
2016,07,14,12,56,19.30
2016,07,14,12,57,19.30
2016,07,14,12,58,19.40
2016,07,14,12,59,19.50
2016,07,14,13,00,19.50
2016,07,14,13,01,19.40
2016,07,14,13,02,19.40
2016,07,14,13,03,19.50
2016,07,14,13,04,19.60
2016,07,14,13,05,19.50
2016,07,14,13,06,19.50
2016,07,14,13,07,19.60
2016,07,14,13,08,19.70
2016,07,14,13,09,19.70
2016,07,14,13,10,19.70
2016,07,14,13,11,19.80
2016,07,14,13,12,20.10
2016,07,14,13,13,20.10
2016,07,14,13,14,20.10
2016,07,14,13,15,20.00
2016,07,14,13,16,19.90
2016,07,14,13,17,19.80
2016,07,14,13,18,19.80
2016,07,14,13,19,19.80
2016,07,14,13,20,19.70
2016,07,14,13,21,19.80
2016,07,14,13,22,19.70
2016,07,14,13,23,19.60
2016,07,14,13,24,19.60
2016,07,14,13,25,19.50
2016,07,14,13,26,19.40
2016,07,14,13,27,19.50
2016,07,14,13,28,19.40
2016,07,14,13,29,19.30
2016,07,14,13,30,19.40
2016,07,14,13,31,19.50
2016,07,14,13,32,19.60
2016,07,14,13,33,19.80
2016,07,14,13,34,19.80
2016,07,14,13,35,19.80
2016,07,14,13,36,19.70
2016,07,14,13,37,19.60
2016,07,14,13,38,19.70
2016,07,14,13,39,19.70
2016,07,14,13,40,19.70
2016,07,14,13,41,19.80
2016,07,14,13,42,19.80
2016,07,14,13,43,19.60
2016,07,14,13,44,19.40
2016,07,14,13,45,19.20
2016,07,14,13,46,19.00
2016,07,14,13,47,18.90
2016,07,14,13,48,18.90
2016,07,14,13,49,18.80
2016,07,14,13,50,18.80
2016,07,14,13,51,18.70
2016,07,14,13,52,18.50
2016,07,14,13,53,18.50
2016,07,14,13,54,18.40
2016,07,14,13,55,18.40
2016,07,14,13,56,18.40
2016,07,14,13,57,18.30
2016,07,14,13,58,18.30
2016,07,14,13,59,18.30
2016,07,14,14,00,18.20
2016,07,14,14,01,18.10
2016,07,14,14,02,18.00
2016,07,14,14,03,18.00
2016,07,14,14,04,17.90
2016,07,14,14,05,17.80
2016,07,14,14,06,17.80
2016,07,14,14,07,17.80
2016,07,14,14,08,17.70
2016,07,14,14,09,17.60
2016,07,14,14,10,17.60
2016,07,14,14,11,17.40
2016,07,14,14,12,17.40
2016,07,14,14,13,17.40
2016,07,14,14,14,17.30
2016,07,14,14,15,17.20
2016,07,14,14,16,17.10
2016,07,14,14,17,17.00
2016,07,14,14,18,16.90
2016,07,14,14,19,16.80
2016,07,14,14,20,16.70
2016,07,14,14,21,16.70
2016,07,14,14,22,16.60
2016,07,14,14,23,16.60
2016,07,14,14,24,16.40
2016,07,14,14,25,16.30
2016,07,14,14,26,16.30
2016,07,14,14,27,16.30
2016,07,14,14,28,16.30
2016,07,14,14,29,16.30
2016,07,14,14,30,16.30
2016,07,14,14,31,16.30
2016,07,14,14,32,16.30
2016,07,14,14,33,16.30
2016,07,14,14,34,16.30
2016,07,14,14,35,16.30
2016,07,14,14,36,16.30
2016,07,14,14,37,16.30
2016,07,14,14,38,16.30
2016,07,14,14,39,16.30
2016,07,14,16,22,18.70
2016,07,14,16,23,18.80
2016,07,14,16,24,18.90
2016,07,14,16,25,18.90
2016,07,14,16,26,19.10
2016,07,14,16,27,19.30
2016,07,14,16,28,19.30
2016,07,14,16,29,19.30
2016,07,14,16,30,19.30
2016,07,14,16,31,19.20
2016,07,14,16,32,19.20
2016,07,14,16,33,19.10
2016,07,14,16,34,19.10
2016,07,14,16,35,19.10
2016,07,14,16,36,19.10
2016,07,14,16,37,19.00
2016,07,14,16,38,18.90
2016,07,14,16,39,18.90
2016,07,14,16,40,18.90
2016,07,14,16,41,18.80
2016,07,14,16,42,18.70
2016,07,14,16,43,18.70
2016,07,14,16,44,18.60
2016,07,14,16,45,18.60
2016,07,14,16,46,18.60
2016,07,14,16,47,18.60
2016,07,14,16,48,18.60
2016,07,14,16,49,18.60
2016,07,14,16,50,18.60
2016,07,14,16,51,18.60
2016,07,14,16,52,18.50
2016,07,14,16,53,18.50
2016,07,14,16,54,18.40
2016,07,14,16,55,18.40
2016,07,14,16,56,18.40
2016,07,14,16,57,18.40
2016,07,14,16,58,18.40
2016,07,14,16,59,18.40
2016,07,14,17,00,18.40
2016,07,14,17,01,18.40
2016,07,14,17,02,18.40
2016,07,14,17,03,18.50
2016,07,14,17,04,18.50
2016,07,14,17,05,18.60
2016,07,14,17,06,18.60
2016,07,14,17,07,18.60
2016,07,14,17,08,18.70
2016,07,14,17,09,18.80
2016,07,14,17,10,18.80
2016,07,14,17,11,18.90
2016,07,14,17,12,18.90
2016,07,14,17,13,19.00
2016,07,14,17,14,19.00
2016,07,14,17,15,19.10
2016,07,14,17,16,19.10
2016,07,14,17,17,19.20
2016,07,14,17,18,19.20
2016,07,14,17,19,19.20
2016,07,14,17,20,19.20
2016,07,14,17,21,19.30
2016,07,14,17,22,19.40
2016,07,14,17,23,19.40
2016,07,14,17,24,19.60
2016,07,14,17,25,19.60
2016,07,14,17,26,19.80
2016,07,14,17,27,19.80
2016,07,14,17,28,19.80
2016,07,14,17,29,19.90
2016,07,14,17,30,19.90
2016,07,14,17,31,20.00
2016,07,14,17,32,20.00
2016,07,14,17,33,20.00
2016,07,14,17,34,20.00
2016,07,14,17,35,20.10
2016,07,14,17,36,20.10
2016,07,14,17,37,20.10
2016,07,14,17,38,20.10
2016,07,14,17,39,20.10
2016,07,14,17,40,20.10
2016,07,14,17,41,20.20
2016,07,14,17,42,20.20
2016,07,14,17,43,20.20
2016,07,14,17,44,20.30
2016,07,14,17,45,20.30
2016,07,14,17,46,20.30
2016,07,14,17,47,20.30
2016,07,14,17,48,20.30
2016,07,14,17,49,20.20
2016,07,14,17,50,20.20
2016,07,14,17,51,20.10
2016,07,14,17,52,20.10
2016,07,14,17,53,20.10
2016,07,14,17,54,20.00
2016,07,14,17,55,20.00
2016,07,14,17,56,20.00
2016,07,14,17,57,20.00
2016,07,14,17,58,20.00
2016,07,14,17,59,19.90
2016,07,14,18,00,19.90
2016,07,14,18,01,19.90
2016,07,14,18,02,19.90
2016,07,14,18,03,19.90
2016,07,14,18,04,19.90
2016,07,14,18,05,20.00
2016,07,14,18,06,20.00
2016,07,14,18,07,20.10
2016,07,14,18,08,20.10
2016,07,14,18,09,20.10
2016,07,14,18,10,20.00
2016,07,14,18,11,20.00
2016,07,14,18,12,19.90
2016,07,14,18,13,20.00
2016,07,14,18,14,20.00
2016,07,14,18,15,20.10
2016,07,14,18,16,20.10
2016,07,14,18,17,20.10
2016,07,14,18,18,20.10
2016,07,14,18,19,20.10
2016,07,14,18,20,20.10
2016,07,14,18,21,20.10
2016,07,14,18,22,20.20
2016,07,14,18,23,20.20
2016,07,14,18,24,20.20
2016,07,14,18,25,20.20
2016,07,14,18,26,20.20
2016,07,14,18,27,20.20
2016,07,14,18,28,20.20
2016,07,14,18,29,20.20
2016,07,14,18,30,20.20
2016,07,14,18,31,20.30
2016,07,14,18,32,20.30
2016,07,14,18,33,20.40
2016,07,14,18,34,20.40
2016,07,14,18,35,20.40
2016,07,14,18,36,20.50
2016,07,14,18,37,20.60
2016,07,14,18,38,20.60
2016,07,14,18,39,20.70
2016,07,14,18,40,20.70
2016,07,14,18,41,20.70
2016,07,14,18,42,20.80
2016,07,14,18,43,20.70
2016,07,14,18,44,20.70
2016,07,14,18,45,20.70
2016,07,14,18,46,20.60
2016,07,14,18,47,20.70
2016,07,14,18,48,20.70
2016,07,14,18,49,20.70
2016,07,14,18,50,20.60
2016,07,14,18,51,20.70
2016,07,14,18,52,20.70
2016,07,14,18,53,20.70
2016,07,14,18,54,20.70
2016,07,14,18,55,20.80
2016,07,14,18,56,20.80
2016,07,14,18,57,20.80
2016,07,14,18,58,20.80
2016,07,14,18,59,20.80
2016,07,14,19,00,20.90
2016,07,14,19,01,20.90